Weather History for Tri-Cities, TN

Change the Weather History Date:

Friday, January 2, 2004

  Actual Average Record
Temperature  
Mean Temperature 44 °F 35 °F  
Max Temperature 48 °F 45 °F 73 °F (1947)
Min Temperature 39 °F 25 °F 9 °F (1977)
Degree Days  
Heating Degree Days 22 30  
Month to date heating degree days 60  
Since 1 July heating degree days 1789  
Cooling Degree Days 0 0  
Month to date cooling degree days 0  
Year to date cooling degree days 0  
Moisture  
Dew Point 41 °F    
Average Humidity 91    
Maximum Humidity 100    
Minimum Humidity 73    
Precipitation  
Precipitation 0.17 in 0.10 in 0.89 in (1996)
Month to date precipitation 0.20  
Year to date precipitation 0.20  
Snow  
Snow 0.00 in 0.20 in - ()
Month to date snowfall 0.3  
Since 1 July snowfall 3.0  
Snow Depth -    
Sea Level Pressure  
Sea Level Pressure 30.21 in    
Wind  
Wind Speed 1 mph (ESE)    
Max Wind Speed 8 mph    
Max Gust Speed -    
Visibility 6 miles    
Events Fog , Rain    
T = Trace of Precipitation, MM = Missing Value Source: NWS Daily Summary

Daily Weather History Graph

Daily Weather History Graph

Search for Another Location

Airport:

Trip Planner

Search our weather history database for the weather conditions in past years. The results will help you decide how hot, cold, wet, or windy it might be!

Date:

Astronomy

Jan. 02, 2004 Rise Set
Actual Time 7:41 AM EST 5:25 PM EST
Civil Twilight 7:12 AM EST 5:54 PM EST
Nautical Twilight 6:40 AM EST 6:26 PM EST
Astronomical Twilight 6:09 AM EST 6:57 PM EST
Moon 1:54 PM EST (1/2) 3:15 AM EST (1/2)
Length of Visible Light 10h 41m
Length of Day
9h 43m
Waxing Gibbous, 79% of the Moon is Illuminated
Jan 2
Waxing Gibbous
Jan 7
Full
Jan 14
Last Quarter
Jan 21
New
Jan 29
First Quarter

Hourly Weather History & Observations

Time (EST) Temp. Windchill Dew Point Humidity Pressure Visibility Wind Dir Wind Speed Gust Speed Precip Events Conditions
12:53 AM 39.9 °F - 32.0 °F 73% 30.27 in 10.0 mi Calm Calm - N/A   Scattered Clouds
1:53 AM 39.0 °F - 33.1 °F 79% 30.25 in 10.0 mi Calm Calm - N/A   Mostly Cloudy
2:53 AM 39.0 °F - 32.0 °F 76% 30.24 in 10.0 mi Calm Calm - N/A   Mostly Cloudy
3:53 AM 39.9 °F - 34.0 °F 79% 30.23 in 10.0 mi Calm Calm - N/A   Overcast
4:53 AM 43.0 °F 40.3 °F 35.1 °F 74% 30.28 in 10.0 mi South 4.6 mph - 0.00 in   Overcast
5:53 AM 41.0 °F - 37.0 °F 86% 30.29 in 10.0 mi Calm Calm - 0.01 in Rain Light Rain
6:21 AM 41.0 °F 37.1 °F 37.4 °F 87% 30.26 in 10.0 mi North 5.8 mph - 0.00 in   Overcast
6:53 AM 39.9 °F 37.8 °F 37.0 °F 89% 30.24 in 10.0 mi NE 3.5 mph - 0.00 in   Scattered Clouds
7:53 AM 39.0 °F - 36.0 °F 89% 30.25 in 10.0 mi Calm Calm - N/A   Scattered Clouds
8:53 AM 42.1 °F 39.2 °F 39.0 °F 89% 30.28 in 10.0 mi South 4.6 mph - N/A   Overcast
9:53 AM 44.1 °F - 39.0 °F 82% 30.31 in 10.0 mi Calm Calm - 0.00 in   Overcast
10:53 AM 45.0 °F 40.6 °F 41.0 °F 86% 30.33 in 7.0 mi SE 8.1 mph - 0.00 in Rain Light Rain
11:53 AM 46.0 °F 42.5 °F 43.0 °F 89% 30.30 in 5.0 mi ENE 6.9 mph - 0.05 in Rain Light Rain
12:53 PM 46.0 °F 43.1 °F 44.1 °F 93% 30.24 in 10.0 mi ENE 5.8 mph - 0.04 in   Overcast
1:53 PM 46.9 °F - 45.0 °F 93% 30.22 in 6.0 mi NNE 3.5 mph - 0.05 in Rain Light Rain
2:53 PM 48.0 °F - 46.0 °F 93% 30.19 in 3.0 mi Calm Calm - 0.02 in   Overcast
3:07 PM 48.2 °F - 46.4 °F 93% 30.17 in 2.0 mi Variable 3.5 mph - N/A   Mostly Cloudy
3:53 PM 48.9 °F - 46.9 °F 93% 30.17 in 2.0 mi Calm Calm - N/A   Overcast
4:04 PM 48.2 °F - 46.4 °F 93% 30.16 in 3.0 mi Calm Calm - N/A   Overcast
4:53 PM 48.0 °F - 46.9 °F 96% 30.16 in 4.0 mi Calm Calm - N/A   Mostly Cloudy
5:53 PM 48.0 °F - 46.9 °F 96% 30.15 in 4.0 mi Calm Calm - 0.00 in   Overcast
6:53 PM 46.9 °F - 46.9 °F 100% 30.16 in 3.0 mi WSW 3.5 mph - N/A   Overcast
7:01 PM 46.4 °F - 46.4 °F 100% 30.15 in 2.0 mi Calm Calm - N/A   Overcast
7:25 PM 46.4 °F - 44.6 °F 93% 30.13 in 0.5 mi Calm Calm - N/A Fog Fog
7:53 PM 44.1 °F - 44.1 °F 100% 30.15 in 0.8 mi Calm Calm - N/A   Scattered Clouds
8:53 PM 41.0 °F - 41.0 °F 100% 30.16 in 0.2 mi Calm Calm - N/A Fog Fog
9:53 PM 39.9 °F - 39.9 °F 100% 30.17 in 0.2 mi Calm Calm - N/A Fog Fog
10:53 PM 43.0 °F - 42.1 °F 97% 30.17 in 1.5 mi Calm Calm - N/A   Overcast
10:56 PM 42.8 °F - 42.8 °F 100% 30.16 in 3.0 mi Calm Calm - N/A   Overcast
11:30 PM 42.8 °F - 42.8 °F 100% 30.15 in 2.5 mi Calm Calm - N/A   Overcast
11:53 PM 43.0 °F 41.3 °F 43.0 °F 100% 30.15 in 2.5 mi SSE 3.5 mph - N/A   Overcast